LiveATC.Net - Listen to live air traffic control over the Internet!


ICAO: KMLB  IATA: MLB   Airport: Melbourne International Airport
City: Melbourne   State/Province: Florida
Country: United States   Continent: North America
KMLB METAR Weather: KMLB 291053Z 23005KT 10SM BKN055 BKN075 BKN090 12/10 A3003 RMK AO2 RAE0958 SLP168 P0000 T01220100
KMLB Flight Activity (FlightAware)
KMLB Airport Info   (iFlightPlanner)
KMLB VFR Sectional Chart   (iFlightPlanner) 
KMLB IFR Low Altitude Chart   (iFlightPlanner) 
KMLB IFR High Altitude Chart   (iFlightPlanner) 

KMLB Twr/App
Feed Status: DOWN
Last heard on: 2021-11-27 17:17:39 (1 days 18 hours 33 minutes ago)
Archive Access: KMLB Twr/App
FacilityFrequency
Melbourne Tower118.200
Orlando Approach132.650
Sponsored by:
Melbourne Area Pilots Association

NOTICE

Unauthorized use prohibited. See LiveATC.net Terms of Service


Airport/ARTCC Code
Frequency Search
(e.g., 124.400, 128.75)
Site-wide search
 


Browse Feeds
Top 50 Feeds
HF Oceanic Feeds
Coverage Map
Bad Weather Areas

LiveATC FAQ
Offer LiveATC feed
Contact LiveATC.net
Press Inquiries

LiveATC on iPhone
LiveATC on Android

Windows Phone
Windows 8/10

LiveATC Mobile
(Mobile browser)

ATC Audio Archives
Interesting Recordings

LiveATC Forums


Home Page
About LiveATC.net
Make a Donation
Terms of Use
Privacy Policy

Canadian Air Freqs

AIRMETs/SIGMETs

FAA Airport Status
NAS Status
Arrival Demand


Server Software By:
Icecast.org
Liquidsoap